Date String (YYYY-MM-DD hh:mm:ss) UTC,Instrument flags,Ambient pressure (hPa),Sample flow (lpm),Bypass flow (lpm),Sample temperature (°C),Ambient temperature (°C),ASC tube jacket temperature (°C),LED temperature (°C),Box temperature (°C),Sample RH (%),Span deviation,Mass concentration (μg/m³),Mass concentration (μg/m³),Mass concentration (μg/m³)
DateTimeUTC,F1_M11,P_M11,Q1_M11,Q2_M11,T1_M11,T2_M11,T3_M11,T4_M11,T5_M11,U1_M11,ZSPAN_M11,X0_M11,X2_M11,X1_M11
2022-01-22 05:00:00,,0833.5,5.00,0.00,22.3,21.6,00.0,31.3,24.0,15.6,-000.5,0006.86,0004.95,0004.78
2022-01-22 05:01:00,,0833.5,5.00,0.00,22.2,21.6,00.0,31.3,24.0,15.5,-000.6,0006.84,0004.92,0004.76
2022-01-22 05:02:00,,0833.5,5.00,0.00,22.2,21.7,00.0,31.3,24.0,15.4,-000.8,0006.77,0004.89,0004.73
2022-01-22 05:03:00,,0833.6,4.99,0.00,22.3,22.1,00.0,31.3,24.2,15.3,-000.1,0006.69,0004.85,0004.71
2022-01-22 05:04:00,,0833.6,5.00,0.00,22.4,22.9,00.0,31.3,24.4,15.2,0000.0,0006.64,0004.83,0004.67
2022-01-22 05:05:00,,0833.6,5.00,0.00,22.6,23.2,00.0,31.4,24.6,15.0,0000.0,0006.44,0004.78,0004.65
2022-01-22 05:06:00,,0833.6,5.00,0.00,22.6,23.0,00.0,31.4,24.6,15.0,0000.0,0006.28,0004.74,0004.62
2022-01-22 05:07:00,,0833.6,5.00,0.00,22.6,22.8,00.0,31.4,24.5,15.0,0000.0,0006.23,0004.71,0004.60
2022-01-22 05:08:00,,0833.6,4.99,0.00,22.6,22.6,00.0,31.4,24.5,15.0,0000.0,0006.14,0004.68,0004.58
2022-01-22 05:09:00,,0833.6,5.01,0.00,22.6,22.5,00.0,31.4,24.4,15.0,0000.0,0006.07,0004.64,0004.54
2022-01-22 05:10:00,,0833.6,4.99,0.00,22.6,22.3,00.0,31.4,24.4,15.0,0000.0,0005.99,0004.62,0004.52
2022-01-22 05:11:00,,0833.6,5.01,0.00,22.6,22.3,00.0,31.5,24.4,15.0,0000.0,0006.02,0004.61,0004.50
2022-01-22 05:12:00,,0833.6,4.99,0.00,22.6,22.2,00.0,31.5,24.4,15.0,0000.0,0005.95,0004.60,0004.48
2022-01-22 05:13:00,,0833.6,5.00,0.00,22.6,22.1,00.0,31.5,24.3,15.0,0000.0,0005.95,0004.60,0004.47
2022-01-22 05:14:00,,0833.6,4.99,0.00,22.5,22.1,00.0,31.5,24.3,15.0,0000.0,0005.98,0004.60,0004.47
2022-01-22 05:15:00,,0833.6,5.02,0.00,22.5,22.0,00.0,31.5,24.3,15.0,0000.0,0006.04,0004.60,0004.47
2022-01-22 05:16:00,,0833.6,4.99,0.00,22.5,22.0,00.0,31.5,24.3,15.0,0000.0,0006.05,0004.60,0004.46
2022-01-22 05:17:00,,0833.6,5.02,0.00,22.5,22.0,00.0,31.5,24.3,14.9,0000.0,0006.04,0004.59,0004.45
2022-01-22 05:18:00,,0833.6,4.99,0.00,22.5,21.9,00.0,31.5,24.3,14.9,0000.0,0006.05,0004.59,0004.44
2022-01-22 05:19:00,,0833.6,5.00,0.00,22.5,21.9,00.0,31.5,24.3,14.9,0000.0,0006.04,0004.57,0004.42
2022-01-22 05:20:00,,0833.6,5.01,0.00,22.5,21.9,00.0,31.5,24.3,14.9,0000.0,0006.03,0004.56,0004.40
2022-01-22 05:21:00,,0833.6,4.99,0.00,22.5,21.9,00.0,31.4,24.2,14.8,0000.0,0005.96,0004.52,0004.36
2022-01-22 05:22:00,,0833.6,5.01,0.00,22.4,21.9,00.0,31.5,24.3,14.8,0000.0,0005.82,0004.46,0004.32
2022-01-22 05:23:00,,0833.7,4.99,0.00,22.5,21.9,00.0,31.4,24.3,14.8,0000.0,0005.69,0004.41,0004.29
2022-01-22 05:24:00,,0833.7,5.01,0.00,22.4,21.9,00.0,31.4,24.3,14.8,0000.0,0005.71,0004.39,0004.27
2022-01-22 05:25:00,,0833.7,4.99,0.00,22.5,21.9,00.0,31.4,24.2,14.9,0000.0,0005.65,0004.37,0004.24
2022-01-22 05:26:00,,0833.7,5.02,0.00,22.4,21.8,00.0,31.4,24.2,14.9,0000.0,0005.66,0004.37,0004.22
2022-01-22 05:27:00,,0833.7,4.99,0.00,22.4,21.8,00.0,31.4,24.2,14.9,0000.0,0005.61,0004.35,0004.22
2022-01-22 05:28:00,,0833.7,5.01,0.00,22.4,21.8,00.0,31.4,24.1,14.9,0000.0,0005.60,0004.35,0004.21
2022-01-22 05:29:00,,0833.7,4.99,0.00,22.4,21.8,00.0,31.4,24.1,14.8,0000.0,0006.45,0004.34,0004.20
2022-01-22 05:30:00,,0833.7,5.01,0.00,22.4,21.7,00.0,31.4,24.1,14.8,0000.0,0006.51,0004.34,0004.19
2022-01-22 05:31:00,,0833.7,5.00,0.00,22.4,21.7,00.0,31.4,24.1,14.9,0000.0,0006.65,0004.33,0004.19
2022-01-22 05:32:00,,0833.7,5.00,0.00,22.4,21.7,00.0,31.4,24.1,14.9,0000.0,0007.11,0004.34,0004.20
2022-01-22 05:33:00,,0833.7,5.00,0.00,22.4,21.7,00.0,31.4,24.1,14.9,0000.0,0007.14,0004.36,0004.22
2022-01-22 05:34:00,,0833.7,4.99,0.00,22.4,21.7,00.0,31.4,24.1,15.0,0000.0,0007.30,0004.39,0004.24
2022-01-22 05:35:00,,0833.7,5.02,0.00,22.3,21.7,00.0,31.4,24.1,15.1,0000.0,0007.27,0004.41,0004.27
2022-01-22 05:36:00,,0833.7,4.98,0.00,22.3,21.7,00.0,31.3,24.1,15.2,0000.0,0007.32,0004.45,0004.31
2022-01-22 05:37:00,,0833.7,5.01,0.00,22.3,21.7,00.0,31.3,24.1,15.1,0000.0,0007.23,0004.44,0004.32
2022-01-22 05:38:00,,0833.7,4.99,0.00,22.3,21.7,00.0,31.3,24.1,15.0,0000.0,0007.24,0004.44,0004.32
2022-01-22 05:39:00,,0833.6,5.01,0.00,22.3,21.7,00.0,31.3,24.1,15.0,0000.0,0007.26,0004.44,0004.34
2022-01-22 05:40:00,,0833.7,4.99,0.00,22.3,21.7,00.0,31.3,24.1,15.0,0000.0,0006.42,0004.47,0004.36
2022-01-22 05:41:00,,0833.6,4.99,0.00,22.3,21.7,00.0,31.3,24.1,15.0,0000.0,0006.34,0004.47,0004.38
2022-01-22 05:42:00,,0833.6,5.00,0.00,22.3,21.7,00.0,31.3,24.1,14.9,0000.0,0006.16,0004.47,0004.39
2022-01-22 05:43:00,,0833.6,5.00,0.00,22.3,21.7,00.0,31.3,24.1,14.9,0000.0,0005.79,0004.48,0004.39
2022-01-22 05:44:00,,0833.7,5.02,0.00,22.3,21.7,00.0,31.3,24.1,14.9,0000.0,0005.75,0004.48,0004.39
2022-01-22 05:45:00,,0833.6,4.98,0.00,22.3,21.7,00.0,31.3,24.1,14.9,0000.0,0005.67,0004.46,0004.38
2022-01-22 05:46:00,,0833.6,5.00,0.00,22.3,21.7,00.0,31.3,24.1,14.9,0000.0,0005.69,0004.45,0004.35
2022-01-22 05:47:00,,0833.6,4.99,0.00,22.3,21.7,00.0,31.3,24.1,14.9,0000.0,0005.62,0004.41,0004.30
2022-01-22 05:48:00,,0833.6,5.02,0.00,22.3,21.7,00.0,31.3,24.1,14.9,0000.0,0005.56,0004.38,0004.28
2022-01-22 05:49:00,,0833.6,4.98,0.00,22.3,21.7,00.0,31.3,24.1,14.9,0000.0,0005.57,0004.37,0004.26
2022-01-22 05:50:00,,0833.6,5.01,0.00,22.3,21.7,00.0,31.3,24.1,14.8,0000.0,0005.81,0004.35,0004.24
2022-01-22 05:51:00,,0833.6,4.99,0.00,22.3,21.6,00.0,31.3,24.1,14.8,0000.0,0006.84,0004.33,0004.20
2022-01-22 05:52:00,,0833.6,4.99,0.00,22.3,21.8,00.0,31.3,24.1,14.8,0000.0,0006.84,0004.31,0004.17
2022-01-22 05:53:00,,0833.6,5.01,0.00,22.4,22.5,00.0,31.3,24.3,14.7,0000.0,0006.82,0004.29,0004.15
2022-01-22 05:54:00,,0833.7,5.01,0.00,22.6,23.1,00.0,31.4,24.6,14.7,0000.0,0006.75,0004.27,0004.14
2022-01-22 05:55:00,,0833.6,4.99,0.00,22.6,23.1,00.0,31.4,24.6,14.6,0000.0,0006.73,0004.26,0004.14
2022-01-22 05:56:00,,0833.6,4.99,0.00,22.7,22.9,00.0,31.4,24.6,14.7,0000.0,0006.67,0004.26,0004.13
2022-01-22 05:57:00,,0833.6,5.01,0.00,22.7,22.7,00.0,31.4,24.6,14.6,0000.0,0006.57,0004.23,0004.13
2022-01-22 05:58:00,,0833.6,4.99,0.00,22.7,22.6,00.0,31.5,24.5,14.6,0000.0,0006.59,0004.23,0004.13
2022-01-22 05:59:00,,0833.6,5.01,0.00,22.7,22.5,00.0,31.5,24.5,14.6,0000.0,0006.58,0004.22,0004.12
